| time (UTC) | temp F | wind direction | speed knots | gust knots | rain 1hr in | rain 24hr in | rain mn in | humidity % | barometer mb |
| 20260904194558 | 57 | 0.0 | 0.0 | 0.00 | 0.51 | 0.51 | 96 | 1000.3 | |
| 20260904193125 | 57 | 0.0 | 0.0 | 0.01 | 0.51 | 0.51 | 96 | 1000.4 | |
| 20260904191604 | 57 | 0.0 | 0.0 | 0.03 | 0.51 | 0.51 | 96 | 1000.1 | |
| 20260904190111 | 57 | 0.0 | 0.0 | 0.03 | 0.50 | 0.50 | 95 | 999.9 | |
| 20260904184606 | 56 | 0.0 | 0.0 | 0.04 | 0.50 | 0.50 | 95 | 999.9 | |
| 20260904183104 | 57 | 0.0 | 0.0 | 0.10 | 0.49 | 0.49 | 95 | 999.8 | |
| 20260904181602 | 57 | 0.0 | 0.0 | 0.13 | 0.48 | 0.48 | 94 | 999.7 | |
| 20260904180106 | 57 | 0.0 | 0.0 | 0.12 | 0.47 | 0.47 | 93 | 999.8 | |
| 20260904174606 | 58 | 0.0 | 0.0 | 0.11 | 0.45 | 0.45 | 93 | 999.9 | |
| 20260904173107 | 59 | 0.0 | 0.0 | 0.04 | 0.39 | 0.39 | 93 | 999.8 | |
| 20260904171555 | 59 | 0.0 | 0.0 | 0.00 | 0.34 | 0.34 | 92 | 999.9 | |
| 20260904170056 | 60 | 0.0 | 0.0 | 0.00 | 0.34 | 0.34 | 92 | 999.6 | |
| 20260904164556 | 60 | 0.0 | 0.0 | 0.00 | 0.34 | 0.34 | 92 | 999.5 | |
| 20260904163106 | 60 | 0.0 | 0.0 | 0.00 | 0.34 | 0.34 | 92 | 999.5 | |
| 20260904161610 | 60 | 0.0 | 0.0 | 0.00 | 0.34 | 0.34 | 92 | 999.8 | |
| 20260904160103 | 60 | 0.0 | 0.0 | 0.00 | 0.34 | 0.34 | 93 | 999.8 | |
| 20260904154604 | 60 | 0.0 | 0.0 | 0.00 | 0.34 | 0.34 | 93 | 999.8 | |
| 20260904153102 | 60 | 0.0 | 0.0 | 0.00 | 0.34 | 0.34 | 94 | 1000.0 | |
| 20260904151605 | 60 | 0.0 | 0.0 | 0.00 | 0.34 | 0.34 | 95 | 999.9 | |
| 20260904150105 | 59 | 0.0 | 0.0 | 0.00 | 0.34 | 0.34 | 95 | 999.6 | |
| 20260904144612 | 60 | 0.0 | 0.0 | 0.01 | 0.36 | 0.34 | 96 | 999.8 | |
| 20260904143108 | 60 | 0.0 | 0.0 | 0.04 | 0.36 | 0.34 | 95 | 999.9 | |
| 20260904141605 | 61 | 0.0 | 0.0 | 0.06 | 0.35 | 0.33 | 96 | 1000.0 | |
| 20260904140104 | 61 | 0.0 | 0.0 | 0.07 | 0.35 | 0.33 | 96 | 1000.2 | |
| 20260904134607 | 61 | 0.0 | 0.0 | 0.07 | 0.34 | 0.33 | 96 | 1000.1 | |
| 20260904133107 | 61 | 0.0 | 0.0 | 0.06 | 0.31 | 0.29 | 96 | 1000.1 | |
| 20260904131606 | 61 | 0.0 | 0.0 | 0.05 | 0.29 | 0.27 | 96 | 1000.0 | |
| 20260904130105 | 61 | 0.0 | 0.0 | 0.05 | 0.27 | 0.25 | 96 | 1000.1 | |
| 20260904124606 | 60 | 0.0 | 0.0 | 0.07 | 0.27 | 0.25 | 96 | 1000.1 | |
| 20260904123059 | 60 | 0.0 | 0.0 | 0.08 | 0.25 | 0.23 | 95 | 1000.4 | |
| 20260904121555 | 60 | 0.0 | 0.0 | 0.09 | 0.24 | 0.22 | 95 | 1000.7 | |
| 20260904120105 | 60 | 0.0 | 0.0 | 0.09 | 0.22 | 0.20 | 95 | 1000.9 | |
| 20260904114558 | 61 | 0.0 | 0.0 | 0.08 | 0.20 | 0.18 | 95 | 1001.2 | |
| 20260904113058 | 60 | 0.0 | 0.0 | 0.07 | 0.17 | 0.14 | 94 | 1001.2 | |
| 20260904111558 | 61 | 0.0 | 0.0 | 0.04 | 0.14 | 0.12 | 94 | 1001.3 | |
| 20260904110105 | 61 | 0.0 | 0.0 | 0.03 | 0.13 | 0.11 | 94 | 1001.5 | |
| 20260904104605 | 61 | 0.0 | 0.0 | 0.02 | 0.12 | 0.09 | 94 | 1001.6 | |
| 20260904103058 | 62 | 0.0 | 0.0 | 0.00 | 0.11 | 0.07 | 95 | 1001.7 | |
| 20260904101556 | 61 | 0.0 | 0.0 | 0.00 | 0.11 | 0.07 | 95 | 1002.1 | |
| 20260904100126 | 61 | 0.0 | 0.0 | 0.01 | 0.11 | 0.07 | 95 | 1002.2 | |
| 20260904094600 | 61 | 0.0 | 0.0 | 0.02 | 0.11 | 0.07 | 94 | 1002.5 | |
| 20260904093107 | 60 | 0.0 | 0.0 | 0.03 | 0.11 | 0.07 | 95 | 1002.7 | |
| 20260904091601 | 60 | 0.0 | 0.0 | 0.03 | 0.11 | 0.07 | 94 | 1003.1 | |
| 20260904090058 | 60 | 0.0 | 0.0 | 0.03 | 0.10 | 0.06 | 93 | 1003.3 | |
| 20260904084605 | 60 | 0.0 | 0.0 | 0.01 | 0.12 | 0.04 | 92 | 1003.6 | |
| 20260904083103 | 60 | 0.0 | 0.0 | 0.00 | 0.11 | 0.03 | 91 | 1003.8 | |
| 20260904081604 | 60 | 0.0 | 0.0 | 0.00 | 0.11 | 0.03 | 90 | 1003.9 | |
| 20260904074610 | 59 | 0.0 | 0.0 | 0.00 | 0.15 | 0.03 | 92 | 1003.9 | |
| 20260904073103 | 59 | 0.0 | 0.0 | 0.00 | 0.15 | 0.03 | 93 | 1004.1 | |
| 20260904071627 | 58 | 0.0 | 0.0 | 0.00 | 0.14 | 0.02 | 93 | 1004.3 | |
| 20260904070109 | 58 | 0.0 | 0.0 | 0.00 | 0.14 | 0.02 | 92 | 1004.4 | |
| 20260904064608 | 58 | 0.0 | 0.0 | 0.00 | 0.14 | 0.02 | 92 | 1004.8 | |
| 20260904063100 | 58 | 0.0 | 0.0 | 0.00 | 0.14 | 0.02 | 91 | 1004.8 | |
| 20260904061603 | 58 | 0.0 | 0.0 | 0.00 | 0.14 | 0.02 | 91 | 1005.1 | |
| 20260904060111 | 58 | 0.0 | 0.0 | 0.00 | 0.14 | 0.02 | 91 | 1005.2 | |
| 20260904054601 | 58 | 0.0 | 0.0 | 0.00 | 0.14 | 0.02 | 91 | 1005.5 | |
| 20260904053109 | 58 | 0.0 | 0.0 | 0.00 | 0.14 | 0.02 | 91 | 1005.8 | |
| 20260904051602 | 58 | 0.0 | 0.0 | 0.00 | 0.14 | 0.02 | 91 | 1005.5 | |
| 20260904050107 | 58 | 0.0 | 0.0 | 0.00 | 0.14 | 0.02 | 92 | 1005.8 | |
| 20260904044624 | 58 | 0.0 | 0.0 | 0.00 | 0.15 | 0.02 | 92 | 1005.8 | |
| 20260904043106 | 58 | 0.0 | 0.0 | 0.00 | 0.15 | 0.02 | 92 | 1005.8 | |
| 20260904041618 | 58 | 0.0 | 0.0 | 0.00 | 0.15 | 0.02 | 92 | 1005.7 | |
| 20260904040103 | 58 | 0.0 | 0.0 | 0.00 | 0.15 | 0.02 | 92 | 1005.8 | |
| 20260904034606 | 59 | 0.0 | 0.0 | 0.00 | 0.15 | 0.02 | 92 | 1006.0 | |
| 20260904033104 | 59 | 0.0 | 0.0 | 0.00 | 0.15 | 0.02 | 92 | 1006.1 | |
| 20260904031613 | 59 | 0.0 | 0.0 | 0.00 | 0.15 | 0.02 | 92 | 1006.4 | |
| 20260904030058 | 59 | 0.0 | 0.0 | 0.00 | 0.15 | 0.02 | 93 | 1006.4 | |
| 20260904024613 | 59 | 0.0 | 0.0 | 0.00 | 0.15 | 0.02 | 93 | 1006.5 | |
| 20260904023102 | 59 | 0.0 | 0.0 | 0.00 | 0.15 | 0.02 | 93 | 1006.5 | |
| 20260904021554 | 59 | 0.0 | 0.0 | 0.00 | 0.15 | 0.02 | 93 | 1006.6 | |
| 20260904020059 | 58 | 0.0 | 0.0 | 0.00 | 0.15 | 0.02 | 94 | 1006.8 | |
| 20260904014557 | 58 | 0.0 | 0.0 | 0.00 | 0.15 | 0.02 | 94 | 1006.8 | |
| 20260904013057 | 59 | 0.0 | 0.0 | 0.00 | 0.14 | 0.01 | 94 | 1006.9 | |
| 20260904011603 | 59 | 0.0 | 0.0 | 0.01 | 0.14 | 0.01 | 93 | 1007.1 | |
| 20260904010059 | 59 | 0.0 | 0.0 | 0.01 | 0.14 | 0.01 | 93 | 1007.0 | |
| 20260904004601 | 59 | 0.0 | 0.0 | 0.01 | 0.14 | 0.01 | 92 | 1007.2 | |
| 20260904003058 | 60 | 0.0 | 0.0 | 0.01 | 0.14 | 0.01 | 92 | 1007.3 | |
| 20260904001557 | 60 | 0.0 | 0.0 | 0.00 | 0.13 | 0.00 | 92 | 1007.0 | |
| 20260903234600 | 60 | 0.0 | 0.0 | 0.00 | 0.13 | 0.00 | 93 | 1007.3 | |
| 20260903233058 | 60 | 0.0 | 0.0 | 0.00 | 0.13 | 0.00 | 93 | 1007.1 | |
| 20260903230103 | 61 | 0.0 | 0.0 | 0.00 | 0.13 | 0.00 | 92 | 1007.3 | |
| 20260903224555 | 61 | 0.0 | 0.0 | 0.00 | 0.13 | 0.00 | 91 | 1007.5 | |
| 20260903223107 | 61 | 0.0 | 0.0 | 0.00 | 0.13 | 0.00 | 91 | 1007.6 | |
| 20260903221602 | 61 | 0.0 | 0.0 | 0.00 | 0.13 | 0.00 | 91 | 1007.6 | |
| 20260903220058 | 61 | 0.0 | 0.0 | 0.00 | 0.13 | 0.00 | 91 | 1007.5 | |
| 20260903214603 | 61 | 0.0 | 0.0 | 0.00 | 0.13 | 0.13 | 90 | 1007.4 | |
| 20260903213059 | 61 | 0.0 | 0.0 | 0.00 | 0.13 | 0.13 | 90 | 1007.5 | |
| 20260903211602 | 61 | 0.0 | 0.0 | 0.00 | 0.13 | 0.13 | 89 | 1007.4 | |
| 20260903210112 | 62 | 0.0 | 0.0 | 0.00 | 0.13 | 0.13 | 89 | 1007.5 | |
| 20260903204603 | 62 | 0.0 | 0.0 | 0.00 | 0.13 | 0.13 | 89 | 1007.4 | |
| 20260903203100 | 62 | 0.0 | 0.0 | 0.00 | 0.13 | 0.13 | 89 | 1007.4 | |
| 20260903201559 | 63 | 0.0 | 0.0 | 0.00 | 0.13 | 0.13 | 89 | 1007.3 | |
| 20260903200057 | 63 | 0.0 | 0.0 | 0.00 | 0.13 | 0.13 | 88 | 1007.4 |